Details From VHHH - Hong Kong Intl
To ZSSS - Hongqiao Intl
Flight Number -
Tags Decoded
Created
Modified
Stats Distance 667 nm / 1,236 km
Max Altitude 0 ft / 0 m
Waypoints 2
Social Downloads 0
Likes 0
Share VATSIM

Download

Looking for another format? Having issues loading an existing format? Contact us
Advertisement - Login to hide

Notes

Decoded

Route

VHHH ZSSS

ID Type Via Altitude Latitude Longitude Leg Dist Tot Dist Heading (true) Name
O VHHH APT - 0 ft / 0 m 22.29628˚ 113.89799˚ - 0 nm - -
O ZSSS APT - 0 ft / 0 m 31.21325˚ 121.33544˚ 667 nm 667 nm 35° / 38° -

Altitude Profile

Advertisement - Login to hide

Weather


0- 5 10 15 20 25 30 35+ Temperature / ° C

Clouds and Precipitation
Forecast for 2017-12-17 00:00 UTC. Updated an hour ago

Ground ~20,000 ft ~40,000 ft Winds

VHHH

Details ICAO VHHH (HKG)
Name Hong Kong Intl
Region Hong Kong
Timezone Unknown (UTC+0.0)
Stats Elevation 28 ft / 9 m (AMSL)
Location 22.308995° 113.914610°
Runways 2
Magnetic Variation 2.822° W

METAR

VHHH 162000Z 03012KT 9999 FEW030 SCT045 12/04 Q1026 NOSIG

Decode

TAF

TAF TAF VHHH 161700Z 1618/1724 01015KT 9999 FEW030 SCT040 TX16/1707Z TN11/1623Z TN10/1723Z

Decode

Departure Runways

ID Width Length Bearing (true) Bearing (mag) Surface Threshold Offset Overrun Length
07L 197 ft / 60 m 12,457 ft / 3,797 m 70.79° 73.61° Asphalt 564 ft / 172 m 866 ft / 264 m
07R 197 ft / 60 m 12,458 ft / 3,797 m 70.79° 73.61° Asphalt 525 ft / 160 m 886 ft / 270 m
25L 197 ft / 60 m 12,458 ft / 3,797 m 250.80° 253.62° Asphalt 0 ft / 0 m 840 ft / 256 m
25R 197 ft / 60 m 12,457 ft / 3,797 m 250.80° 253.62° Asphalt 581 ft / 177 m 860 ft / 262 m

ZSSS

Details ICAO ZSSS (SHA)
Name HONGQIAO INTL
Region China
Timezone Asia/Shanghai (UTC+8.0)
Stats Elevation 10 ft / 3 m (AMSL)
Location 31.197875° 121.336319°
Runways 1
Magnetic Variation 5.917° W

METAR

ZSSS 162000Z 32003MPS CAVOK M00/M07 Q1036 NOSIG

Decode

TAF

Not found

Destination Runways

ID Width Length Bearing (true) Bearing (mag) Surface Threshold Offset Overrun Length
18 190 ft / 58 m 11,234 ft / 3,424 m 177.21° 183.13° Asphalt 657 ft / 200 m 520 ft / 159 m
36 190 ft / 58 m 11,234 ft / 3,424 m 357.21° 3.13° Asphalt 657 ft / 200 m 520 ft / 159 m

Approach Navaids

Runway Type Ident Frequency Range Bearing (true) Bearing (mag) Slope Elevation
18 Localiser IPK 109.10 MHz 18 nm / 33 km 177.03° 182.95° - 10 ft / 3 m (AMSL)
18 Glidescope IPK 109.10 MHz 10 nm / 19 km 177.21° 183.13° 3.00° 8 ft / 2 m (AMSL)
36 Localiser IWB 110.30 MHz 18 nm / 33 km 356.95° 2.86° - 8 ft / 2 m (AMSL)
36 Glidescope IWB 110.30 MHz 10 nm / 19 km 357.21° 3.13° 3.00° 10 ft / 3 m (AMSL)

Popular Alternatives